Big Bear Station Historical Data
Daily Summary for October 19, 2017 Units:  English    Metric   Both
« Previous Day
Next Day »
Daily Weekly Monthly Yearly Custom
  High: Low: Average:
Temperature: 65.8 °F 40.1 °F 49.6 °F
Dew Point: 45.0 °F 31.1 °F 36.8 °F
Humidity: 89 % 30 % 64 %
Wind Speed: 5.3 mph 0.0 mph 1.2 mph
Wind Gust: -999.0 mph - -
Wind:- - West
Pressure: 30.20 in 30.09 in -
Precipitation: 0.00 in    
Historical Graphs
 
 
Tabular Data for October 19, 2017
Time Temperature Dew Point Pressure Wind Wind Speed Wind Gust Humidity Rainfall Rate (Hourly)
00:00 43.7 °F 32.3 °F 30.20 in Calm   -999.0 mph 64 % 0 in
00:15 43.7 °F 31.9 °F 30.20 in Calm   -999.0 mph 63 % 0 in
00:30 43.2 °F 32.2 °F 30.20 in Calm   -999.0 mph 65 % 0 in
00:46 42.8 °F 32.6 °F 30.19 in Calm   -999.0 mph 67 % 0 in
01:01 42.8 °F 33.7 °F 30.19 in Calm   -999.0 mph 70 % 0 in
01:16 42.3 °F 33.2 °F 30.18 in Calm   -999.0 mph 70 % 0 in
01:31 42.1 °F 33.0 °F 30.18 in Calm   -999.0 mph 70 % 0 in
01:46 41.7 °F 33.0 °F 30.18 in Calm   -999.0 mph 71 % 0 in
02:02 42.1 °F 34.4 °F 30.18 in Calm   -999.0 mph 74 % 0 in
02:17 41.4 °F 33.7 °F 30.18 in Calm   -999.0 mph 74 % 0 in
02:32 41.0 °F 33.3 °F 30.17 in Calm   -999.0 mph 74 % 0 in
02:47 41.4 °F 34.1 °F 30.17 in Calm   -999.0 mph 75 % 0 in
03:02 41.0 °F 33.3 °F 30.17 in Calm   -999.0 mph 74 % 0 in
03:18 40.5 °F 32.9 °F 30.16 in Calm   -999.0 mph 74 % 0 in
03:33 41.2 °F 34.5 °F 30.15 in Calm   -999.0 mph 77 % 0 in
03:48 41.0 °F 35.0 °F 30.15 in Calm   -999.0 mph 79 % 0 in
04:03 40.6 °F 35.5 °F 30.15 in Calm   -999.0 mph 82 % 0 in
04:18 40.6 °F 35.5 °F 30.15 in Calm   -999.0 mph 82 % 0 in
04:34 40.6 °F 36.1 °F 30.15 in Calm   -999.0 mph 84 % 0 in
04:49 40.1 °F 36.0 °F 30.15 in Calm   -999.0 mph 85 % 0 in
05:04 40.5 °F 36.3 °F 30.15 in Calm   -999.0 mph 85 % 0 in
05:19 40.5 °F 36.3 °F 30.15 in Calm   -999.0 mph 85 % 0 in
05:35 40.3 °F 36.4 °F 30.15 in Calm   -999.0 mph 86 % 0 in
05:50 40.8 °F 37.2 °F 30.15 in Calm   -999.0 mph 87 % 0 in
06:05 40.8 °F 37.2 °F 30.15 in Calm   -999.0 mph 87 % 0 in
06:20 40.8 °F 36.9 °F 30.15 in Calm   -999.0 mph 86 % 0 in
06:35 40.6 °F 37.0 °F 30.15 in Calm   -999.0 mph 87 % 0 in
06:51 40.8 °F 37.8 °F 30.15 in Calm   -999.0 mph 89 % 0 in
07:06 40.6 °F 37.6 °F 30.15 in Calm   -999.0 mph 89 % 0 in
07:21 40.8 °F 36.9 °F 30.15 in Calm   -999.0 mph 86 % 0 in
07:36 41.0 °F 36.8 °F 30.15 in Calm   -999.0 mph 85 % 0 in
07:51 41.2 °F 37.3 °F 30.15 in Calm   -999.0 mph 86 % 0 in
08:07 42.1 °F 38.8 °F 30.15 in Calm   -999.0 mph 88 % 0 in
08:22 42.1 °F 38.8 °F 30.15 in Calm   -999.0 mph 88 % 0 in
08:37 42.4 °F 38.8 °F 30.15 in Calm   -999.0 mph 87 % 0 in
08:52 45.5 °F 40.6 °F 30.16 in Calm   -999.0 mph 83 % 0 in
09:07 46.6 °F 39.8 °F 30.15 in Calm   -999.0 mph 77 % 0 in
09:23 49.8 °F 39.3 °F 30.15 in Calm   -999.0 mph 67 % 0 in
09:38 52.2 °F 39.6 °F 30.15 in Calm   -999.0 mph 62 % 0 in
09:53 56.1 °F 38.7 °F 30.15 in Calm   -999.0 mph 52 % 0 in
10:08 56.8 °F 39.4 °F 30.15 in NW 1.1 mph -999.0 mph 52 % 0 in
10:23 59.2 °F 37.9 °F 30.15 in WSW 2.2 mph -999.0 mph 45 % 0 in
10:39 60.3 °F 38.9 °F 30.15 in NW 3.2 mph -999.0 mph 45 % 0 in
10:54 61.5 °F 39.4 °F 30.14 in NW 3.7 mph -999.0 mph 44 % 0 in
11:09 61.7 °F 41.3 °F 30.15 in NW 3.2 mph -999.0 mph 47 % 0 in
11:25 62.2 °F 42.3 °F 30.15 in NW 2.7 mph -999.0 mph 48 % 0 in
11:40 63.0 °F 43.0 °F 30.15 in WNW 4.2 mph -999.0 mph 48 % 0 in
11:55 63.5 °F 38.1 °F 30.14 in NNW 5.3 mph -999.0 mph 39 % 0 in
12:11 63.7 °F 38.9 °F 30.14 in NNW 3.7 mph -999.0 mph 40 % 0 in
12:26 64.9 °F 37.3 °F 30.14 in SE 2.7 mph -999.0 mph 36 % 0 in
12:41 65.5 °F 36.4 °F 30.13 in NW 5.3 mph -999.0 mph 34 % 0 in
12:57 65.5 °F 36.4 °F 30.13 in NNW 4.2 mph -999.0 mph 34 % 0 in
13:12 65.8 °F 35.9 °F 30.12 in NW 3.2 mph -999.0 mph 33 % 0 in
13:27 65.7 °F 35.8 °F 30.12 in WNW 3.7 mph -999.0 mph 33 % 0 in
13:42 65.3 °F 33.1 °F 30.11 in West 4.2 mph -999.0 mph 30 % 0 in
13:58 64.2 °F 32.9 °F 30.11 in NNW 3.7 mph -999.0 mph 31 % 0 in
14:14 63.7 °F 33.3 °F 30.11 in NW 3.7 mph -999.0 mph 32 % 0 in
14:29 63.5 °F 34.6 °F 30.11 in NNE 3.2 mph -999.0 mph 34 % 0 in
14:44 63.7 °F 36.9 °F 30.11 in WNW 4.2 mph -999.0 mph 37 % 0 in
14:59 63.0 °F 34.9 °F 30.11 in NW 2.7 mph -999.0 mph 35 % 0 in
15:15 62.2 °F 38.2 °F 30.11 in NW 5.3 mph -999.0 mph 41 % 0 in
15:30 62.8 °F 40.0 °F 30.11 in NW 3.7 mph -999.0 mph 43 % 0 in
15:46 61.0 °F 39.5 °F 30.10 in NW 4.7 mph -999.0 mph 45 % 0 in
16:01 59.9 °F 39.6 °F 30.10 in NNE 3.7 mph -999.0 mph 47 % 0 in
16:16 59.0 °F 39.3 °F 30.10 in North 3.2 mph -999.0 mph 48 % 0 in
16:32 58.8 °F 40.2 °F 30.10 in West 3.7 mph -999.0 mph 50 % 0 in
16:47 57.7 °F 41.2 °F 30.10 in NNW 4.2 mph -999.0 mph 54 % 0 in
17:02 56.1 °F 41.5 °F 30.09 in SE 2.7 mph -999.0 mph 58 % 0 in
17:18 54.9 °F 43.4 °F 30.10 in NW 4.2 mph -999.0 mph 65 % 0 in
17:33 53.4 °F 44.2 °F 30.10 in WSW 1.7 mph -999.0 mph 71 % 0 in
17:48 52.2 °F 44.9 °F 30.10 in Calm   -999.0 mph 76 % 0 in
18:03 51.1 °F 44.8 °F 30.10 in Calm   -999.0 mph 79 % 0 in
18:18 50.0 °F 44.4 °F 30.09 in Calm   -999.0 mph 81 % 0 in
18:34 49.3 °F 45.0 °F 30.09 in Calm   -999.0 mph 85 % 0 in
18:49 48.7 °F 45.0 °F 30.10 in Calm   -999.0 mph 87 % 0 in
19:04 48.0 °F 41.8 °F 30.09 in Calm   -999.0 mph 79 % 0 in
19:19 47.3 °F 37.6 °F 30.10 in Calm   -999.0 mph 69 % 0 in
19:34 46.8 °F 35.7 °F 30.11 in Calm   -999.0 mph 65 % 0 in
19:50 45.9 °F 35.2 °F 30.11 in Calm   -999.0 mph 66 % 0 in
20:05 45.9 °F 32.8 °F 30.11 in Calm   -999.0 mph 60 % 0 in
20:21 45.5 °F 31.1 °F 30.11 in Calm   -999.0 mph 57 % 0 in
20:36 45.3 °F 31.4 °F 30.11 in Calm   -999.0 mph 58 % 0 in
20:51 45.1 °F 32.5 °F 30.11 in Calm   -999.0 mph 61 % 0 in
21:06 45.5 °F 32.0 °F 30.10 in Calm   -999.0 mph 59 % 0 in
21:21 44.6 °F 31.6 °F 30.10 in SSE 2.2 mph -999.0 mph 60 % 0 in
21:37 44.4 °F 32.2 °F 30.10 in Calm   -999.0 mph 62 % 0 in
21:52 44.8 °F 33.0 °F 30.10 in Calm   -999.0 mph 63 % 0 in
22:07 45.7 °F 34.6 °F 30.11 in Calm   -999.0 mph 65 % 0 in
22:22 46.2 °F 34.7 °F 30.11 in Calm   -999.0 mph 64 % 0 in
22:38 45.9 °F 34.8 °F 30.11 in Calm   -999.0 mph 65 % 0 in
22:53 45.0 °F 32.8 °F 30.11 in Calm   -999.0 mph 62 % 0 in
23:08 44.4 °F 34.1 °F 30.11 in ESE 1.1 mph -999.0 mph 67 % 0 in
23:23 43.7 °F 34.6 °F 30.11 in Calm   -999.0 mph 70 % 0 in
23:54 43.2 °F 34.4 °F 30.09 in Calm   -999.0 mph 71 % 0 in
Big Bear CA Weather
Compliments of Weather Underground - 1.5 mb